Time,TemperatureF,DewpointF,PressureIn,WindDirection,WindDirectionDegrees,WindSpeedMPH,WindSpeedGustMPH,Humidity,HourlyPrecipIn,Conditions,Clouds,dailyrainin,SoftwareType,DateUTC
2013-02-27 00:00:00,46.2,46.2,29.57,North,0,0.0,0.0,100,0.00,,---,1.15,VWS V14.01,2013-02-27 05:00:00,
2013-02-27 00:05:00,46.0,46.0,29.57,North,354,0.0,0.0,100,0.00,,---,0.00,VWS V14.01,2013-02-27 05:05:00,
2013-02-27 00:10:00,45.8,45.8,29.57,North,353,0.0,0.0,100,0.00,,---,0.00,VWS V14.01,2013-02-27 05:10:00,
2013-02-27 00:15:00,45.7,45.7,29.57,North,352,0.0,0.0,100,0.00,,---,0.00,VWS V14.01,2013-02-27 05:15:00,
2013-02-27 00:20:00,45.5,45.5,29.57,North,356,0.0,0.0,100,0.00,,---,0.00,VWS V14.01,2013-02-27 05:20:00,
2013-02-27 00:25:00,45.5,45.5,29.57,North,352,0.0,0.0,100,0.00,,---,0.00,VWS V14.01,2013-02-27 05:25:00,
2013-02-27 00:30:00,45.4,45.4,29.57,North,352,0.0,0.0,100,0.00,,---,0.00,VWS V14.01,2013-02-27 05:30:00,
2013-02-27 00:35:00,45.2,45.2,29.57,North,0,0.0,0.0,100,0.00,,---,0.00,VWS V14.01,2013-02-27 05:35:00,
2013-02-27 00:40:00,45.1,45.1,29.57,North,353,0.0,0.0,100,0.00,,---,0.00,VWS V14.01,2013-02-27 05:40:00,
2013-02-27 00:45:00,45.1,45.1,29.57,North,357,0.0,0.0,100,0.00,,---,0.00,VWS V14.01,2013-02-27 05:45:00,
2013-02-27 00:50:00,44.9,44.9,29.57,North,359,0.0,0.0,100,0.00,,---,0.00,VWS V14.01,2013-02-27 05:50:00,
2013-02-27 00:55:00,44.8,44.8,29.57,North,0,0.0,0.0,100,0.00,,---,0.00,VWS V14.01,2013-02-27 05:55:00,
2013-02-27 01:00:00,44.8,44.8,29.57,North,0,0.0,0.0,100,0.00,,---,0.00,VWS V14.01,2013-02-27 06:00:00,
2013-02-27 01:05:00,44.6,44.6,29.58,North,353,0.0,0.0,100,0.00,,---,0.00,VWS V14.01,2013-02-27 06:05:00,
2013-02-27 01:10:00,44.5,44.5,29.58,North,353,0.0,0.0,100,0.00,,---,0.00,VWS V14.01,2013-02-27 06:10:00,
2013-02-27 01:15:00,44.5,44.5,29.58,North,0,0.0,0.0,100,0.00,,---,0.00,VWS V14.01,2013-02-27 06:15:00,
2013-02-27 01:20:00,44.3,44.3,29.58,North,359,0.0,0.0,100,0.00,,---,0.00,VWS V14.01,2013-02-27 06:20:00,
2013-02-27 01:25:00,44.3,44.3,29.58,North,353,0.0,0.0,100,0.00,,---,0.00,VWS V14.01,2013-02-27 06:25:00,
2013-02-27 01:30:00,44.5,44.5,29.58,North,359,0.0,0.0,100,0.00,,---,0.00,VWS V14.01,2013-02-27 06:30:00,
2013-02-27 01:35:00,44.6,44.6,29.58,North,0,0.0,0.0,100,0.01,,---,0.01,VWS V14.01,2013-02-27 06:35:00,
2013-02-27 01:40:00,44.9,44.9,29.58,North,6,0.0,0.0,100,0.01,,---,0.01,VWS V14.01,2013-02-27 06:40:00,
2013-02-27 01:45:00,45.1,45.1,29.58,North,6,0.0,0.0,100,0.01,,---,0.01,VWS V14.01,2013-02-27 06:45:00,
2013-02-27 01:50:00,45.2,45.2,29.58,ENE,58,0.0,0.0,100,0.01,,---,0.01,VWS V14.01,2013-02-27 06:50:00,
2013-02-27 01:55:00,45.2,45.2,29.58,ENE,58,0.0,0.0,100,0.01,,---,0.01,VWS V14.01,2013-02-27 06:55:00,
2013-02-27 02:00:00,45.2,45.2,29.58,ENE,58,0.0,0.0,100,0.01,,---,0.01,VWS V14.01,2013-02-27 07:00:00,
2013-02-27 02:05:00,45.2,45.2,29.58,ENE,58,0.0,0.0,100,0.01,,---,0.01,VWS V14.01,2013-02-27 07:05:00,
2013-02-27 02:10:00,45.1,45.1,29.58,ENE,58,0.0,0.0,100,0.01,,---,0.01,VWS V14.01,2013-02-27 07:10:00,
2013-02-27 02:15:00,45.1,45.1,29.58,ENE,61,0.0,1.0,100,0.01,,---,0.01,VWS V14.01,2013-02-27 07:15:00,
2013-02-27 02:20:00,44.9,44.9,29.58,East,95,1.0,3.0,100,0.01,,---,0.01,VWS V14.01,2013-02-27 07:20:00,
2013-02-27 02:25:00,44.8,44.8,29.58,East,95,0.0,0.0,100,0.01,,---,0.01,VWS V14.01,2013-02-27 07:25:00,
2013-02-27 02:30:00,44.6,44.6,29.58,East,95,0.0,2.0,100,0.01,,---,0.01,VWS V14.01,2013-02-27 07:30:00,
2013-02-27 02:35:00,44.6,44.6,29.59,NNE,27,0.0,0.0,100,0.00,,---,0.01,VWS V14.01,2013-02-27 07:35:00,
2013-02-27 02:40:00,44.5,44.5,29.59,NE,52,0.0,0.0,100,0.00,,---,0.01,VWS V14.01,2013-02-27 07:40:00,
2013-02-27 02:45:00,44.3,44.3,29.59,NE,51,0.0,0.0,100,0.00,,---,0.01,VWS V14.01,2013-02-27 07:45:00,
2013-02-27 02:50:00,44.2,44.2,29.59,ENE,62,0.0,0.0,100,0.00,,---,0.01,VWS V14.01,2013-02-27 07:50:00,
2013-02-27 02:55:00,44.2,44.2,29.59,East,97,0.0,1.0,100,0.00,,---,0.01,VWS V14.01,2013-02-27 07:55:00,
2013-02-27 03:00:00,44.2,44.2,29.59,East,97,0.0,0.0,100,0.00,,---,0.01,VWS V14.01,2013-02-27 08:00:00,
2013-02-27 03:05:00,44.1,44.1,29.59,East,100,0.0,0.0,100,0.00,,---,0.01,VWS V14.01,2013-02-27 08:05:00,
2013-02-27 03:10:00,44.1,44.1,29.59,SE,126,0.0,3.0,100,0.00,,---,0.01,VWS V14.01,2013-02-27 08:10:00,
2013-02-27 03:15:00,43.9,43.9,29.59,North,8,0.0,1.0,100,0.00,,---,0.01,VWS V14.01,2013-02-27 08:15:00,
2013-02-27 03:20:00,43.8,43.8,29.58,NNE,30,0.0,0.0,100,0.00,,---,0.01,VWS V14.01,2013-02-27 08:20:00,
2013-02-27 03:25:00,43.8,43.8,29.58,NE,56,0.0,0.0,100,0.00,,---,0.01,VWS V14.01,2013-02-27 08:25:00,
2013-02-27 03:30:00,43.6,43.6,29.58,SE,140,0.0,0.0,100,0.00,,---,0.01,VWS V14.01,2013-02-27 08:30:00,
2013-02-27 03:35:00,43.6,43.6,29.57,South,188,0.0,0.0,100,0.00,,---,0.01,VWS V14.01,2013-02-27 08:35:00,
2013-02-27 03:40:00,43.5,43.5,29.57,SW,219,2.0,5.0,100,0.00,,---,0.01,VWS V14.01,2013-02-27 08:40:00,
2013-02-27 03:45:00,43.5,43.5,29.57,SSE,165,0.0,0.0,100,0.00,,---,0.01,VWS V14.01,2013-02-27 08:45:00,
2013-02-27 03:50:00,43.3,43.3,29.57,SSE,165,0.0,0.0,100,0.00,,---,0.01,VWS V14.01,2013-02-27 08:50:00,
2013-02-27 03:55:00,43.3,43.3,29.57,SSE,165,0.0,0.0,100,0.00,,---,0.01,VWS V14.01,2013-02-27 08:55:00,
2013-02-27 04:00:00,43.3,43.3,29.57,SSW,195,0.0,0.0,100,0.00,,---,0.01,VWS V14.01,2013-02-27 09:00:00,
2013-02-27 04:05:00,43.3,43.3,29.57,SSW,195,0.0,0.0,100,0.00,,---,0.01,VWS V14.01,2013-02-27 09:05:00,
2013-02-27 04:10:00,43.2,43.2,29.57,SSW,195,0.0,0.0,100,0.00,,---,0.01,VWS V14.01,2013-02-27 09:10:00,
2013-02-27 04:15:00,43.2,43.2,29.57,South,184,0.0,0.0,100,0.00,,---,0.01,VWS V14.01,2013-02-27 09:15:00,
2013-02-27 04:20:00,43.2,43.2,29.59,East,80,0.0,0.0,100,0.00,,---,0.01,VWS V14.01,2013-02-27 09:20:00,
2013-02-27 04:25:00,43.2,43.2,29.59,East,80,0.0,0.0,100,0.00,,---,0.01,VWS V14.01,2013-02-27 09:25:00,
2013-02-27 04:30:00,43.2,43.2,29.59,North,1,0.0,6.0,100,0.00,,---,0.01,VWS V14.01,2013-02-27 09:30:00,
2013-02-27 04:35:00,43.1,43.1,29.59,ESE,110,1.0,1.0,100,0.00,,---,0.01,VWS V14.01,2013-02-27 09:35:00,
2013-02-27 04:40:00,43.1,43.1,29.59,North,0,0.0,0.0,100,0.00,,---,0.01,VWS V14.01,2013-02-27 09:40:00,
2013-02-27 04:45:00,42.9,42.9,29.59,NNE,24,0.0,0.0,100,0.00,,---,0.01,VWS V14.01,2013-02-27 09:45:00,
2013-02-27 04:50:00,42.9,42.9,29.60,NNE,23,0.0,0.0,100,0.00,,---,0.01,VWS V14.01,2013-02-27 09:50:00,
2013-02-27 04:55:00,42.9,42.9,29.60,NNE,32,0.0,6.0,100,0.00,,---,0.01,VWS V14.01,2013-02-27 09:55:00,
2013-02-27 05:00:00,42.9,42.9,29.60,ENE,75,0.0,6.0,100,0.00,,---,0.01,VWS V14.01,2013-02-27 10:00:00,
2013-02-27 05:05:00,42.8,42.8,29.60,ENE,69,0.0,0.0,100,0.00,,---,0.01,VWS V14.01,2013-02-27 10:05:00,
2013-02-27 05:10:00,42.8,42.8,29.60,ENE,69,0.0,0.0,100,0.00,,---,0.01,VWS V14.01,2013-02-27 10:10:00,
2013-02-27 05:15:00,42.8,42.8,29.60,NNW,330,0.0,1.0,100,0.00,,---,0.01,VWS V14.01,2013-02-27 10:15:00,
2013-02-27 05:20:00,42.8,42.8,29.61,NNW,330,0.0,0.0,100,0.00,,---,0.01,VWS V14.01,2013-02-27 10:20:00,
2013-02-27 05:25:00,42.6,42.6,29.61,North,0,0.0,0.0,100,0.00,,---,0.01,VWS V14.01,2013-02-27 10:25:00,
2013-02-27 05:30:00,42.6,42.6,29.61,North,354,0.0,2.0,100,0.00,,---,0.01,VWS V14.01,2013-02-27 10:30:00,
2013-02-27 05:35:00,42.6,42.6,29.62,North,357,0.0,0.0,100,0.00,,---,0.01,VWS V14.01,2013-02-27 10:35:00,
2013-02-27 05:40:00,42.5,42.5,29.62,ENE,61,0.0,1.0,100,0.00,,---,0.01,VWS V14.01,2013-02-27 10:40:00,
2013-02-27 05:45:00,42.5,42.5,29.62,ENE,61,0.0,0.0,100,0.00,,---,0.01,VWS V14.01,2013-02-27 10:45:00,
2013-02-27 05:50:00,42.5,42.5,29.62,NE,49,0.0,0.0,100,0.00,,---,0.01,VWS V14.01,2013-02-27 10:50:00,
2013-02-27 05:55:00,42.5,42.5,29.62,ENE,58,0.0,0.0,100,0.00,,---,0.01,VWS V14.01,2013-02-27 10:55:00,
2013-02-27 06:00:00,42.5,42.5,29.62,NNE,30,0.0,0.0,100,0.00,,---,0.01,VWS V14.01,2013-02-27 11:00:00,
2013-02-27 06:05:00,42.3,42.3,29.64,NE,54,0.0,0.0,100,0.00,,---,0.01,VWS V14.01,2013-02-27 11:05:00,
2013-02-27 06:10:00,42.3,42.3,29.64,NE,48,0.0,0.0,100,0.00,,---,0.01,VWS V14.01,2013-02-27 11:10:00,
2013-02-27 06:15:00,42.2,42.2,29.64,NE,45,1.0,3.0,100,0.00,,---,0.01,VWS V14.01,2013-02-27 11:15:00,
2013-02-27 06:20:00,42.2,42.2,29.63,NE,37,0.0,0.0,100,0.00,,---,0.01,VWS V14.01,2013-02-27 11:20:00,
2013-02-27 06:25:00,42.2,42.2,29.63,NE,37,0.0,0.0,100,0.00,,---,0.01,VWS V14.01,2013-02-27 11:25:00,
2013-02-27 06:30:00,42.2,42.2,29.63,NE,37,0.0,0.0,100,0.00,,---,0.01,VWS V14.01,2013-02-27 11:30:00,
2013-02-27 06:35:00,42.1,42.1,29.64,ENE,75,0.0,0.0,100,0.00,,---,0.01,VWS V14.01,2013-02-27 11:35:00,
2013-02-27 06:40:00,41.9,41.9,29.64,NE,38,0.0,0.0,100,0.00,,---,0.01,VWS V14.01,2013-02-27 11:40:00,
2013-02-27 06:45:00,41.9,41.9,29.64,NNE,30,0.0,0.0,100,0.00,,---,0.01,VWS V14.01,2013-02-27 11:45:00,
2013-02-27 06:50:00,41.9,41.9,29.65,East,90,0.0,0.0,100,0.00,,---,0.01,VWS V14.01,2013-02-27 11:50:00,
2013-02-27 06:55:00,41.9,41.9,29.65,East,88,0.0,0.0,100,0.00,,---,0.01,VWS V14.01,2013-02-27 11:55:00,
2013-02-27 07:00:00,41.9,41.9,29.65,ENE,76,2.0,2.0,100,0.00,,---,0.01,VWS V14.01,2013-02-27 12:00:00,
2013-02-27 07:05:00,41.9,41.9,29.66,ENE,75,0.0,0.0,100,0.00,,---,0.01,VWS V14.01,2013-02-27 12:05:00,
2013-02-27 07:10:00,41.9,41.9,29.66,North,0,0.0,3.0,100,0.00,,---,0.01,VWS V14.01,2013-02-27 12:10:00,
2013-02-27 07:15:00,41.9,41.9,29.66,North,349,0.0,0.0,100,0.00,,---,0.01,VWS V14.01,2013-02-27 12:15:00,
2013-02-27 07:20:00,41.9,41.9,29.67,NE,38,0.0,0.0,100,0.00,,---,0.01,VWS V14.01,2013-02-27 12:20:00,
2013-02-27 07:25:00,41.9,41.9,29.67,NNE,32,0.0,0.0,100,0.00,,---,0.01,VWS V14.01,2013-02-27 12:25:00,
2013-02-27 07:30:00,42.1,42.1,29.67,NNE,32,0.0,0.0,100,0.00,,---,0.01,VWS V14.01,2013-02-27 12:30:00,
2013-02-27 07:35:00,42.1,42.1,29.68,North,1,0.0,0.0,100,0.00,,---,0.01,VWS V14.01,2013-02-27 12:35:00,
2013-02-27 07:40:00,42.1,42.1,29.68,North,1,0.0,0.0,100,0.00,,---,0.01,VWS V14.01,2013-02-27 12:40:00,
2013-02-27 07:45:00,42.2,42.2,29.68,East,80,0.0,0.0,100,0.00,,---,0.01,VWS V14.01,2013-02-27 12:45:00,
2013-02-27 07:50:00,42.2,42.2,29.68,ESE,117,0.0,0.0,100,0.00,,---,0.01,VWS V14.01,2013-02-27 12:50:00,
2013-02-27 07:55:00,42.3,42.3,29.68,ESE,119,0.0,0.0,100,0.00,,---,0.01,VWS V14.01,2013-02-27 12:55:00,
2013-02-27 08:00:00,42.5,42.5,29.68,ESE,119,0.0,0.0,100,0.00,,---,0.01,VWS V14.01,2013-02-27 13:00:00,
2013-02-27 08:05:00,42.6,42.6,29.69,ESE,106,0.0,0.0,100,0.00,,---,0.01,VWS V14.01,2013-02-27 13:05:00,
2013-02-27 08:10:00,42.8,42.8,29.69,ESE,106,0.0,0.0,100,0.00,,---,0.01,VWS V14.01,2013-02-27 13:10:00,
2013-02-27 08:15:00,42.9,42.9,29.69,SSE,155,0.0,3.0,100,0.00,,---,0.01,VWS V14.01,2013-02-27 13:15:00,
2013-02-27 08:20:00,43.1,43.1,29.70,ESE,103,0.0,0.0,100,0.00,,---,0.01,VWS V14.01,2013-02-27 13:20:00,
2013-02-27 08:25:00,43.3,43.3,29.70,NE,47,0.0,2.0,100,0.00,,---,0.01,VWS V14.01,2013-02-27 13:25:00,
2013-02-27 08:30:00,43.3,43.3,29.70,NE,34,0.0,0.0,100,0.00,,---,0.01,VWS V14.01,2013-02-27 13:30:00,
2013-02-27 08:35:00,43.5,43.5,29.71,East,85,0.0,1.0,100,0.00,,---,0.01,VWS V14.01,2013-02-27 13:35:00,
2013-02-27 08:40:00,43.8,43.8,29.71,East,96,2.0,3.0,100,0.00,,---,0.01,VWS V14.01,2013-02-27 13:40:00,
2013-02-27 08:45:00,43.9,43.9,29.71,North,0,0.0,7.0,100,0.00,,---,0.01,VWS V14.01,2013-02-27 13:45:00,
2013-02-27 08:50:00,44.2,44.2,29.72,ESE,109,3.0,4.0,100,0.00,,---,0.01,VWS V14.01,2013-02-27 13:50:00,
2013-02-27 08:55:00,44.2,44.2,29.72,North,1,0.0,0.0,100,0.00,,---,0.01,VWS V14.01,2013-02-27 13:55:00,
2013-02-27 09:00:00,44.3,44.3,29.72,NNW,328,0.0,1.0,100,0.00,,---,0.01,VWS V14.01,2013-02-27 14:00:00,
2013-02-27 09:05:00,44.2,44.2,29.72,NW,322,0.0,0.0,100,0.00,,---,0.01,VWS V14.01,2013-02-27 14:05:00,
2013-02-27 09:10:00,44.3,44.3,29.72,South,171,0.0,0.0,100,0.00,,---,0.01,VWS V14.01,2013-02-27 14:10:00,
2013-02-27 09:15:00,44.6,44.6,29.72,ESE,103,0.0,2.0,100,0.00,,---,0.01,VWS V14.01,2013-02-27 14:15:00,
2013-02-27 09:20:00,44.9,44.9,29.72,ENE,68,0.0,0.0,100,0.00,,---,0.01,VWS V14.01,2013-02-27 14:20:00,
2013-02-27 09:25:00,45.2,45.2,29.72,ESE,104,0.0,0.0,100,0.00,,---,0.01,VWS V14.01,2013-02-27 14:25:00,
2013-02-27 09:30:00,45.4,45.4,29.72,NE,44,0.0,0.0,100,0.00,,---,0.01,VWS V14.01,2013-02-27 14:30:00,
2013-02-27 09:35:00,45.5,45.5,29.72,NE,52,0.0,0.0,100,0.00,,---,0.01,VWS V14.01,2013-02-27 14:35:00,
2013-02-27 09:40:00,45.8,45.8,29.72,SSW,192,0.0,4.0,100,0.00,,---,0.01,VWS V14.01,2013-02-27 14:40:00,
2013-02-27 09:45:00,46.1,46.1,29.72,NE,47,0.0,0.0,100,0.00,,---,0.01,VWS V14.01,2013-02-27 14:45:00,
2013-02-27 09:50:00,46.4,46.4,29.71,NNE,31,0.0,0.0,100,0.00,,---,0.01,VWS V14.01,2013-02-27 14:50:00,
2013-02-27 09:55:00,46.5,46.5,29.71,North,10,0.0,1.0,100,0.00,,---,0.01,VWS V14.01,2013-02-27 14:55:00,
2013-02-27 10:00:00,47.0,47.0,29.71,NE,44,0.0,0.0,100,0.00,,---,0.01,VWS V14.01,2013-02-27 15:00:00,
2013-02-27 10:05:00,47.4,47.4,29.71,NE,44,0.0,0.0,100,0.00,,---,0.01,VWS V14.01,2013-02-27 15:05:00,
2013-02-27 10:10:00,48.0,48.0,29.71,NE,42,0.0,1.0,100,0.00,,---,0.01,VWS V14.01,2013-02-27 15:10:00,
2013-02-27 10:15:00,48.3,48.3,29.71,SSE,148,0.0,5.0,100,0.00,,---,0.01,VWS V14.01,2013-02-27 15:15:00,
2013-02-27 10:20:00,48.3,48.3,29.72,NW,305,0.0,2.0,100,0.00,,---,0.01,VWS V14.01,2013-02-27 15:20:00,
2013-02-27 10:25:00,48.3,48.3,29.72,North,359,0.0,0.0,100,0.00,,---,0.01,VWS V14.01,2013-02-27 15:25:00,
2013-02-27 10:30:00,48.3,48.0,29.72,North,0,0.0,3.0,99,0.00,,---,0.01,VWS V14.01,2013-02-27 15:30:00,
2013-02-27 10:35:00,48.9,48.9,29.72,NE,52,0.0,0.0,100,0.00,,---,0.01,VWS V14.01,2013-02-27 15:35:00,
2013-02-27 10:40:00,49.1,48.8,29.72,North,354,0.0,2.0,99,0.00,,---,0.01,VWS V14.01,2013-02-27 15:40:00,
2013-02-27 10:45:00,49.8,49.5,29.72,North,359,0.0,1.0,99,0.00,,---,0.01,VWS V14.01,2013-02-27 15:45:00,
2013-02-27 10:50:00,50.2,49.9,29.73,SSE,155,0.0,3.0,99,0.00,,---,0.01,VWS V14.01,2013-02-27 15:50:00,
2013-02-27 10:58:00,49.9,48.8,29.73,NW,325,0.0,0.0,96,0.00,,---,0.01,VWS V14.01,2013-02-27 15:58:00,
2013-02-27 11:03:00,49.8,49.0,29.73,NNE,18,0.0,3.0,97,0.00,,---,0.01,VWS V14.01,2013-02-27 16:03:00,
2013-02-27 11:08:00,49.9,49.1,29.73,ESE,106,0.0,3.0,97,0.00,,---,0.01,VWS V14.01,2013-02-27 16:08:00,
2013-02-27 11:13:00,50.1,49.0,29.73,North,350,0.0,5.0,96,0.00,,---,0.01,VWS V14.01,2013-02-27 16:13:00,
2013-02-27 11:18:00,50.5,49.4,29.73,NNE,23,1.0,2.0,96,0.00,,---,0.01,VWS V14.01,2013-02-27 16:18:00,
2013-02-27 11:23:00,50.5,49.4,29.73,NNW,333,0.0,5.0,96,0.00,,---,0.01,VWS V14.01,2013-02-27 16:23:00,
2013-02-27 11:28:00,50.5,49.4,29.73,South,186,1.0,1.0,96,0.00,,---,0.01,VWS V14.01,2013-02-27 16:28:00,
2013-02-27 11:33:00,51.3,50.5,29.73,South,174,0.0,1.0,97,0.00,,---,0.01,VWS V14.01,2013-02-27 16:33:00,
2013-02-27 11:38:00,51.6,50.5,29.73,NNE,14,0.0,5.0,96,0.00,,---,0.01,VWS V14.01,2013-02-27 16:38:00,
2013-02-27 11:43:00,51.6,50.2,29.73,South,176,0.0,6.0,95,0.00,,---,0.01,VWS V14.01,2013-02-27 16:43:00,
2013-02-27 11:48:00,52.2,50.8,29.72,North,359,0.0,2.0,95,0.00,,---,0.01,VWS V14.01,2013-02-27 16:48:00,
2013-02-27 11:53:00,52.5,51.1,29.72,South,176,0.0,3.0,95,0.00,,---,0.01,VWS V14.01,2013-02-27 16:53:00,
2013-02-27 11:58:00,52.2,50.8,29.72,NNE,23,0.0,8.0,95,0.00,,---,0.01,VWS V14.01,2013-02-27 16:58:00,
2013-02-27 12:03:00,52.6,50.6,29.72,ENE,68,0.0,3.0,93,0.00,,---,0.01,VWS V14.01,2013-02-27 17:03:00,
2013-02-27 12:08:00,52.3,50.6,29.72,North,0,0.0,3.0,94,0.00,,---,0.01,VWS V14.01,2013-02-27 17:08:00,
2013-02-27 12:13:00,51.6,49.9,29.72,NNW,342,0.0,7.0,94,0.00,,---,0.01,VWS V14.01,2013-02-27 17:13:00,
2013-02-27 12:18:00,51.7,50.3,29.71,NNW,343,0.0,5.0,95,0.00,,---,0.01,VWS V14.01,2013-02-27 17:18:00,
2013-02-27 12:23:00,52.3,50.6,29.71,NW,318,0.0,3.0,94,0.00,,---,0.01,VWS V14.01,2013-02-27 17:23:00,
2013-02-27 12:28:00,52.3,50.3,29.71,NNE,25,1.0,3.0,93,0.00,,---,0.01,VWS V14.01,2013-02-27 17:28:00,
2013-02-27 12:33:00,52.6,50.3,29.71,North,350,0.0,5.0,92,0.00,,---,0.01,VWS V14.01,2013-02-27 17:33:00,
2013-02-27 12:38:00,53.5,51.2,29.71,NNW,333,2.0,6.0,92,0.00,,---,0.01,VWS V14.01,2013-02-27 17:38:00,
2013-02-27 12:43:00,53.9,51.9,29.71,NNW,335,2.0,3.0,93,0.00,,---,0.01,VWS V14.01,2013-02-27 17:43:00,
2013-02-27 12:48:00,54.4,52.1,29.71,North,0,0.0,2.0,92,0.00,,---,0.01,VWS V14.01,2013-02-27 17:48:00,
2013-02-27 12:53:00,55.7,52.5,29.70,SSW,213,1.0,6.0,89,0.00,,---,0.01,VWS V14.01,2013-02-27 17:53:00,
2013-02-27 12:58:00,56.2,45.4,29.70,North,354,1.0,6.0,67,0.00,,---,0.01,VWS V14.01,2013-02-27 17:58:00,
2013-02-27 13:03:00,56.5,41.0,29.70,NNW,330,0.0,5.0,56,0.00,,---,0.01,VWS V14.01,2013-02-27 18:03:00,
2013-02-27 13:07:00,57.2,40.2,29.70,ESE,104,0.0,3.0,53,0.00,,---,0.01,VWS V14.01,2013-02-27 18:07:00,
2013-02-27 13:12:00,57.8,38.8,29.70,SW,232,0.0,3.0,49,0.00,,---,0.01,VWS V14.01,2013-02-27 18:12:00,
2013-02-27 13:17:00,58.6,40.5,29.70,NNW,328,0.0,7.0,51,0.00,,---,0.01,VWS V14.01,2013-02-27 18:17:00,
2013-02-27 13:22:00,59.2,39.0,29.68,North,359,0.0,3.0,47,0.00,,---,0.01,VWS V14.01,2013-02-27 18:22:00,
2013-02-27 13:27:00,58.9,38.7,29.68,North,359,0.0,2.0,47,0.00,,---,0.01,VWS V14.01,2013-02-27 18:27:00,
2013-02-27 13:32:00,59.2,38.5,29.68,North,357,0.0,0.0,46,0.00,,---,0.01,VWS V14.01,2013-02-27 18:32:00,
2013-02-27 13:37:00,59.5,38.2,29.68,SW,222,0.0,5.0,45,0.00,,---,0.01,VWS V14.01,2013-02-27 18:37:00,
2013-02-27 13:42:00,60.2,37.0,29.68,ESE,110,0.0,0.0,42,0.00,,---,0.01,VWS V14.01,2013-02-27 18:42:00,
2013-02-27 13:47:00,61.2,35.4,29.68,West,281,0.0,5.0,38,0.00,,---,0.01,VWS V14.01,2013-02-27 18:47:00,
2013-02-27 13:52:00,60.7,36.3,29.67,NNE,31,0.0,4.0,40,0.00,,---,0.01,VWS V14.01,2013-02-27 18:52:00,
2013-02-27 13:57:00,60.4,36.0,29.67,East,93,0.0,1.0,40,0.00,,---,0.01,VWS V14.01,2013-02-27 18:57:00,
2013-02-27 14:02:00,60.5,36.1,29.67,SE,133,0.0,2.0,40,0.00,,---,0.01,VWS V14.01,2013-02-27 19:02:00,
2013-02-27 14:07:00,60.2,36.4,29.68,North,0,0.0,3.0,41,0.00,,---,0.01,VWS V14.01,2013-02-27 19:07:00,
2013-02-27 14:12:00,60.4,36.0,29.68,North,8,0.0,0.0,40,0.00,,---,0.01,VWS V14.01,2013-02-27 19:12:00,
2013-02-27 14:17:00,60.7,35.6,29.68,North,7,0.0,2.0,39,0.00,,---,0.01,VWS V14.01,2013-02-27 19:17:00,
2013-02-27 14:22:00,60.9,36.4,29.68,North,359,0.0,0.0,40,0.00,,---,0.01,VWS V14.01,2013-02-27 19:22:00,
2013-02-27 14:27:00,60.9,35.1,29.68,South,178,0.0,3.0,38,0.00,,---,0.01,VWS V14.01,2013-02-27 19:27:00,
2013-02-27 14:32:00,61.0,35.9,29.68,SE,127,0.0,0.0,39,0.00,,---,0.01,VWS V14.01,2013-02-27 19:32:00,
2013-02-27 14:37:00,60.9,35.8,29.68,ESE,110,3.0,3.0,39,0.00,,---,0.01,VWS V14.01,2013-02-27 19:37:00,
2013-02-27 14:42:00,60.4,34.7,29.68,NNW,337,1.0,5.0,38,0.00,,---,0.01,VWS V14.01,2013-02-27 19:42:00,
2013-02-27 14:47:00,59.8,35.5,29.68,ESE,120,0.0,6.0,40,0.00,,---,0.01,VWS V14.01,2013-02-27 19:47:00,
2013-02-27 14:52:00,59.5,35.2,29.68,North,359,0.0,2.0,40,0.00,,---,0.01,VWS V14.01,2013-02-27 19:52:00,
2013-02-27 14:57:00,59.2,36.1,29.68,SSW,203,0.0,1.0,42,0.00,,---,0.01,VWS V14.01,2013-02-27 19:57:00,
2013-02-27 15:02:00,58.9,34.6,29.68,SSW,198,0.0,5.0,40,0.00,,---,0.01,VWS V14.01,2013-02-27 20:02:00,
2013-02-27 15:07:00,58.6,35.6,29.67,South,185,0.0,3.0,42,0.00,,---,0.01,VWS V14.01,2013-02-27 20:07:00,
2013-02-27 15:12:00,58.6,35.6,29.67,NNE,20,0.0,3.0,42,0.00,,---,0.01,VWS V14.01,2013-02-27 20:12:00,
2013-02-27 15:17:00,58.6,35.6,29.67,ENE,76,0.0,0.0,42,0.00,,---,0.01,VWS V14.01,2013-02-27 20:17:00,
2013-02-27 15:22:00,58.4,36.6,29.67,NNE,32,0.0,2.0,44,0.00,,---,0.01,VWS V14.01,2013-02-27 20:22:00,
2013-02-27 15:27:00,58.6,35.6,29.67,ENE,71,0.0,2.0,42,0.00,,---,0.01,VWS V14.01,2013-02-27 20:27:00,
2013-02-27 15:32:00,58.9,35.3,29.67,SE,128,0.0,6.0,41,0.00,,---,0.01,VWS V14.01,2013-02-27 20:32:00,
2013-02-27 15:37:00,59.5,36.4,29.67,East,96,0.0,2.0,42,0.00,,---,0.01,VWS V14.01,2013-02-27 20:37:00,
2013-02-27 15:42:00,60.1,35.7,29.67,ESE,110,0.0,0.0,40,0.00,,---,0.01,VWS V14.01,2013-02-27 20:42:00,
2013-02-27 15:47:00,59.9,34.9,29.67,SW,219,0.0,6.0,39,0.00,,---,0.01,VWS V14.01,2013-02-27 20:47:00,
2013-02-27 15:52:00,59.8,35.5,29.67,SW,219,0.0,0.0,40,0.00,,---,0.01,VWS V14.01,2013-02-27 20:52:00,
2013-02-27 15:57:00,59.5,35.2,29.67,NE,41,0.0,5.0,40,0.00,,---,0.01,VWS V14.01,2013-02-27 20:57:00,
2013-02-27 16:02:00,59.3,35.0,29.67,NE,38,0.0,6.0,40,0.00,,---,0.01,VWS V14.01,2013-02-27 21:02:00,
2013-02-27 16:07:00,58.7,36.3,29.66,SSE,150,1.0,3.0,43,0.00,,---,0.01,VWS V14.01,2013-02-27 21:07:00,
2013-02-27 16:12:00,58.4,36.0,29.66,SSW,195,0.0,5.0,43,0.00,,---,0.01,VWS V14.01,2013-02-27 21:12:00,
2013-02-27 16:17:00,58.1,35.2,29.66,SSW,210,0.0,4.0,42,0.00,,---,0.01,VWS V14.01,2013-02-27 21:17:00,
2013-02-27 16:22:00,58.0,37.4,29.67,North,4,0.0,2.0,46,0.00,,---,0.01,VWS V14.01,2013-02-27 21:22:00,
2013-02-27 16:27:00,57.6,36.4,29.67,ESE,119,1.0,1.0,45,0.00,,---,0.01,VWS V14.01,2013-02-27 21:27:00,
2013-02-27 16:32:00,57.5,36.9,29.67,South,176,0.0,2.0,46,0.00,,---,0.01,VWS V14.01,2013-02-27 21:32:00,
2013-02-27 16:37:00,57.0,37.0,29.66,SW,223,0.0,0.0,47,0.00,,---,0.01,VWS V14.01,2013-02-27 21:37:00,
2013-02-27 16:42:00,56.9,37.4,29.66,East,90,0.0,5.0,48,0.00,,---,0.01,VWS V14.01,2013-02-27 21:42:00,
2013-02-27 16:47:00,56.9,36.9,29.66,ESE,123,0.0,0.0,47,0.00,,---,0.01,VWS V14.01,2013-02-27 21:47:00,
2013-02-27 16:52:00,56.9,36.9,29.66,South,175,2.0,2.0,47,0.00,,---,0.01,VWS V14.01,2013-02-27 21:52:00,
2013-02-27 16:57:00,56.9,36.9,29.66,East,93,4.0,6.0,47,0.00,,---,0.01,VWS V14.01,2013-02-27 21:57:00,
2013-02-27 17:02:00,56.9,36.9,29.66,SE,145,0.0,2.0,47,0.00,,---,0.01,VWS V14.01,2013-02-27 22:02:00,
2013-02-27 17:07:00,56.7,37.8,29.67,NE,37,0.0,0.0,49,0.00,,---,0.01,VWS V14.01,2013-02-27 22:07:00,
2013-02-27 17:12:00,56.5,37.6,29.67,NE,42,0.0,0.0,49,0.00,,---,0.01,VWS V14.01,2013-02-27 22:12:00,
2013-02-27 17:17:00,56.5,37.6,29.67,East,83,0.0,2.0,49,0.00,,---,0.01,VWS V14.01,2013-02-27 22:17:00,
2013-02-27 17:22:00,56.2,37.8,29.67,SE,126,0.0,0.0,50,0.00,,---,0.01,VWS V14.01,2013-02-27 22:22:00,
2013-02-27 17:27:00,56.0,37.1,29.67,SSE,165,0.0,3.0,49,0.00,,---,0.01,VWS V14.01,2013-02-27 22:27:00,
2013-02-27 17:32:00,55.9,37.5,29.67,ESE,109,0.0,2.0,50,0.00,,---,0.01,VWS V14.01,2013-02-27 22:32:00,
2013-02-27 17:37:00,55.7,37.4,29.67,South,186,0.0,7.0,50,0.00,,---,0.01,VWS V14.01,2013-02-27 22:37:00,
2013-02-27 17:42:00,55.6,38.3,29.67,South,189,0.0,1.0,52,0.00,,---,0.01,VWS V14.01,2013-02-27 22:42:00,
2013-02-27 17:47:00,55.3,38.5,29.67,South,188,0.0,0.0,53,0.00,,---,0.01,VWS V14.01,2013-02-27 22:47:00,
2013-02-27 17:52:00,55.0,38.2,29.67,South,188,0.0,0.0,53,0.00,,---,0.01,VWS V14.01,2013-02-27 22:52:00,
2013-02-27 17:57:00,54.8,38.5,29.67,South,188,0.0,0.0,54,0.00,,---,0.01,VWS V14.01,2013-02-27 22:57:00,
2013-02-27 18:02:00,54.5,38.2,29.67,South,186,0.0,0.0,54,0.00,,---,0.01,VWS V14.01,2013-02-27 23:02:00,
2013-02-27 18:07:00,54.2,38.9,29.68,South,189,0.0,0.0,56,0.00,,---,0.01,VWS V14.01,2013-02-27 23:07:00,
2013-02-27 18:12:00,53.9,39.0,29.68,South,189,0.0,0.0,57,0.00,,---,0.01,VWS V14.01,2013-02-27 23:12:00,
2013-02-27 18:17:00,53.5,39.1,29.68,South,189,0.0,0.0,58,0.00,,---,0.01,VWS V14.01,2013-02-27 23:17:00,
2013-02-27 18:22:00,53.1,38.7,29.69,South,176,0.0,0.0,58,0.00,,---,0.01,VWS V14.01,2013-02-27 23:22:00,
2013-02-27 18:27:00,52.9,38.1,29.69,South,176,0.0,0.0,57,0.00,,---,0.01,VWS V14.01,2013-02-27 23:27:00,
2013-02-27 18:32:00,52.8,38.9,29.69,South,176,0.0,0.0,59,0.00,,---,0.01,VWS V14.01,2013-02-27 23:32:00,
2013-02-27 18:37:00,52.5,38.6,29.69,South,176,0.0,0.0,59,0.00,,---,0.01,VWS V14.01,2013-02-27 23:37:00,
2013-02-27 18:42:00,52.3,38.8,29.69,South,176,0.0,0.0,60,0.00,,---,0.01,VWS V14.01,2013-02-27 23:42:00,
2013-02-27 18:47:00,51.9,38.5,29.69,South,176,0.0,0.0,60,0.00,,---,0.01,VWS V14.01,2013-02-27 23:47:00,
2013-02-27 18:52:00,51.4,38.8,29.69,South,176,0.0,0.0,62,0.00,,---,0.01,VWS V14.01,2013-02-27 23:52:00,
2013-02-27 18:57:00,51.3,38.3,29.69,ESE,123,0.0,1.0,61,0.00,,---,0.01,VWS V14.01,2013-02-27 23:57:00,
2013-02-27 19:02:00,51.1,38.1,29.69,SSW,199,0.0,2.0,61,0.00,,---,0.01,VWS V14.01,2013-02-28 00:02:00,
2013-02-27 19:07:00,51.1,38.5,29.69,ESE,120,0.0,1.0,62,0.00,,---,0.01,VWS V14.01,2013-02-28 00:07:00,
2013-02-27 19:12:00,51.0,38.5,29.69,ESE,120,0.0,0.0,62,0.00,,---,0.01,VWS V14.01,2013-02-28 00:12:00,
2013-02-27 19:17:00,50.8,38.7,29.69,ESE,120,0.0,0.0,63,0.00,,---,0.01,VWS V14.01,2013-02-28 00:17:00,
2013-02-27 19:22:00,50.7,39.0,29.69,ESE,120,0.0,0.0,64,0.00,,---,0.01,VWS V14.01,2013-02-28 00:22:00,
2013-02-27 19:27:00,50.5,38.8,29.69,ESE,120,0.0,0.0,64,0.00,,---,0.01,VWS V14.01,2013-02-28 00:27:00,
2013-02-27 19:32:00,50.4,39.5,29.69,ESE,120,0.0,0.0,66,0.00,,---,0.01,VWS V14.01,2013-02-28 00:32:00,
2013-02-27 19:37:00,49.9,39.0,29.69,ESE,120,0.0,0.0,66,0.00,,---,0.01,VWS V14.01,2013-02-28 00:37:00,
2013-02-27 19:42:00,49.6,38.7,29.69,ESE,120,0.0,0.0,66,0.00,,---,0.01,VWS V14.01,2013-02-28 00:42:00,
2013-02-27 19:47:00,49.4,39.3,29.69,ESE,120,0.0,0.0,68,0.00,,---,0.01,VWS V14.01,2013-02-28 00:47:00,
2013-02-27 19:52:00,49.1,39.0,29.69,ESE,120,0.0,0.0,68,0.00,,---,0.01,VWS V14.01,2013-02-28 00:52:00,
2013-02-27 19:57:00,48.9,38.8,29.69,ESE,120,0.0,0.0,68,0.00,,---,0.01,VWS V14.01,2013-02-28 00:57:00,
2013-02-27 20:02:00,48.6,39.3,29.69,ESE,120,0.0,0.0,70,0.00,,---,0.01,VWS V14.01,2013-02-28 01:02:00,
2013-02-27 20:07:00,48.3,39.0,29.69,ESE,120,0.0,0.0,70,0.00,,---,0.01,VWS V14.01,2013-02-28 01:07:00,
2013-02-27 20:12:00,48.0,39.1,29.69,ESE,120,0.0,0.0,71,0.00,,---,0.01,VWS V14.01,2013-02-28 01:12:00,
2013-02-27 20:17:00,47.7,38.8,29.69,ESE,120,0.0,0.0,71,0.00,,---,0.01,VWS V14.01,2013-02-28 01:17:00,
2013-02-27 20:22:00,47.4,38.8,29.69,ESE,120,0.0,0.0,72,0.00,,---,0.01,VWS V14.01,2013-02-28 01:22:00,
2013-02-27 20:27:00,47.1,38.9,29.69,ESE,120,0.0,0.0,73,0.00,,---,0.01,VWS V14.01,2013-02-28 01:27:00,
2013-02-27 20:32:00,46.8,38.6,29.69,ESE,120,0.0,0.0,73,0.00,,---,0.01,VWS V14.01,2013-02-28 01:32:00,
2013-02-27 20:37:00,46.5,38.7,29.69,ESE,120,0.0,0.0,74,0.00,,---,0.01,VWS V14.01,2013-02-28 01:37:00,
2013-02-27 20:42:00,46.4,38.9,29.69,ESE,120,0.0,0.0,75,0.00,,---,0.01,VWS V14.01,2013-02-28 01:42:00,
2013-02-27 20:47:00,46.2,38.7,29.69,ESE,120,0.0,0.0,75,0.00,,---,0.01,VWS V14.01,2013-02-28 01:47:00,
2013-02-27 20:52:00,46.0,38.5,29.69,ESE,120,0.0,0.0,75,0.00,,---,0.01,VWS V14.01,2013-02-28 01:52:00,
2013-02-27 20:57:00,45.8,38.7,29.69,ESE,120,0.0,0.0,76,0.00,,---,0.01,VWS V14.01,2013-02-28 01:57:00,
2013-02-27 21:02:00,45.7,38.9,29.69,ESE,120,0.0,0.0,77,0.00,,---,0.01,VWS V14.01,2013-02-28 02:02:00,
2013-02-27 21:07:00,45.4,39.0,29.68,ESE,120,0.0,0.0,78,0.00,,---,0.01,VWS V14.01,2013-02-28 02:07:00,
2013-02-27 21:12:00,45.4,38.6,29.68,ESE,120,0.0,0.0,77,0.00,,---,0.01,VWS V14.01,2013-02-28 02:12:00,
2013-02-27 21:17:00,45.4,38.6,29.68,ESE,120,0.0,0.0,77,0.00,,---,0.01,VWS V14.01,2013-02-28 02:17:00,
2013-02-27 21:22:00,45.8,38.3,29.68,ESE,119,0.0,0.0,75,0.00,,---,0.01,VWS V14.01,2013-02-28 02:22:00,
2013-02-27 21:27:00,46.1,38.3,29.68,ESE,119,0.0,0.0,74,0.00,,---,0.01,VWS V14.01,2013-02-28 02:27:00,
2013-02-27 21:32:00,46.2,38.4,29.68,ESE,119,0.0,0.0,74,0.00,,---,0.01,VWS V14.01,2013-02-28 02:32:00,
2013-02-27 21:37:00,46.5,38.3,29.68,ESE,119,0.0,0.0,73,0.00,,---,0.01,VWS V14.01,2013-02-28 02:37:00,
2013-02-27 21:42:00,46.7,38.5,29.68,ESE,119,0.0,0.0,73,0.00,,---,0.01,VWS V14.01,2013-02-28 02:42:00,
2013-02-27 21:47:00,46.5,38.3,29.68,ESE,117,0.0,0.0,73,0.00,,---,0.01,VWS V14.01,2013-02-28 02:47:00,
2013-02-27 21:52:00,46.5,38.0,29.68,ESE,117,0.0,0.0,72,0.00,,---,0.01,VWS V14.01,2013-02-28 02:52:00,
2013-02-27 21:57:00,46.4,38.2,29.68,ESE,119,0.0,0.0,73,0.00,,---,0.01,VWS V14.01,2013-02-28 02:57:00,
2013-02-27 22:02:00,46.2,38.0,29.68,ESE,119,0.0,0.0,73,0.00,,---,0.01,VWS V14.01,2013-02-28 03:02:00,
2013-02-27 22:07:00,46.2,37.7,29.68,ESE,119,0.0,0.0,72,0.00,,---,0.01,VWS V14.01,2013-02-28 03:07:00,
2013-02-27 22:12:00,46.1,37.9,29.68,ESE,119,0.0,0.0,73,0.00,,---,0.01,VWS V14.01,2013-02-28 03:12:00,
2013-02-27 22:17:00,46.0,37.8,29.68,ESE,119,0.0,0.0,73,0.00,,---,0.01,VWS V14.01,2013-02-28 03:17:00,
2013-02-27 22:22:00,45.8,38.0,29.68,ESE,119,0.0,0.0,74,0.00,,---,0.01,VWS V14.01,2013-02-28 03:22:00,
2013-02-27 22:27:00,45.7,37.9,29.68,ESE,119,0.0,0.0,74,0.00,,---,0.01,VWS V14.01,2013-02-28 03:27:00,
2013-02-27 22:32:00,45.7,37.9,29.68,ESE,119,0.0,0.0,74,0.00,,---,0.01,VWS V14.01,2013-02-28 03:32:00,
2013-02-27 22:37:00,45.4,38.0,29.68,ESE,119,0.0,0.0,75,0.00,,---,0.01,VWS V14.01,2013-02-28 03:37:00,
2013-02-27 22:42:00,45.2,37.8,29.68,ESE,119,0.0,0.0,75,0.00,,---,0.01,VWS V14.01,2013-02-28 03:42:00,
2013-02-27 22:47:00,45.1,38.3,29.68,ESE,119,0.0,0.0,77,0.00,,---,0.01,VWS V14.01,2013-02-28 03:47:00,
2013-02-27 22:52:00,44.9,38.1,29.68,ESE,119,0.0,0.0,77,0.00,,---,0.01,VWS V14.01,2013-02-28 03:52:00,
2013-02-27 22:57:00,44.8,38.0,29.68,ESE,119,0.0,0.0,77,0.00,,---,0.01,VWS V14.01,2013-02-28 03:57:00,
2013-02-27 23:02:00,44.6,38.2,29.68,ESE,119,0.0,0.0,78,0.00,,---,0.01,VWS V14.01,2013-02-28 04:02:00,
2013-02-27 23:07:00,44.3,37.9,29.68,ESE,119,0.0,0.0,78,0.00,,---,0.01,VWS V14.01,2013-02-28 04:07:00,
2013-02-27 23:12:00,44.2,37.8,29.68,ESE,119,0.0,0.0,78,0.00,,---,0.01,VWS V14.01,2013-02-28 04:12:00,
2013-02-27 23:17:00,44.1,38.0,29.68,ESE,119,0.0,0.0,79,0.00,,---,0.01,VWS V14.01,2013-02-28 04:17:00,
2013-02-27 23:22:00,43.9,37.8,29.66,ESE,119,0.0,0.0,79,0.00,,---,0.01,VWS V14.01,2013-02-28 04:22:00,
2013-02-27 23:27:00,43.8,37.7,29.66,ESE,119,0.0,0.0,79,0.00,,---,0.01,VWS V14.01,2013-02-28 04:27:00,
2013-02-27 23:32:00,43.6,37.8,29.66,ESE,119,0.0,0.0,80,0.00,,---,0.01,VWS V14.01,2013-02-28 04:32:00,
2013-02-27 23:37:00,43.5,37.8,29.66,ESE,119,0.0,0.0,80,0.00,,---,0.01,VWS V14.01,2013-02-28 04:37:00,
2013-02-27 23:42:00,43.3,37.9,29.66,ESE,119,0.0,0.0,81,0.00,,---,0.01,VWS V14.01,2013-02-28 04:42:00,
2013-02-27 23:47:00,43.1,37.7,29.66,ESE,119,0.0,0.0,81,0.00,,---,0.01,VWS V14.01,2013-02-28 04:47:00,
2013-02-27 23:52:00,43.1,37.7,29.66,ESE,119,0.0,0.0,81,0.00,,---,0.01,VWS V14.01,2013-02-28 04:52:00,
2013-02-27 23:57:00,42.9,37.5,29.66,ESE,119,0.0,0.0,81,0.00,,---,0.01,VWS V14.01,2013-02-28 04:57:00,